Regional Weather Roundup
Issued by NWS Northern Indiana

Home | Current Version | Previous Version | Text Only | Print | Product List | Glossary On
Versions: 1 2 3 4 5 6 7 8 9 10 11 12 13 14 15 16 17 18 19 20 21 22 23 24 25 26 27 28 29 30 31 32 33 34 35 36 37 38 39 40 41 42 43 44 45 46 47 48 49 50
000
ASUS43 KIWX 210110
RWRIWX

KIWX WEATHER ROUNDUP
NATIONAL WEATHER SERVICE NORTHERN INDIANA
800 PM EST SAT DEC 20 2014

NOTE: "FAIR" INDICATES FEW OR NO CLOUDS BELOW 12,000 FEET WITH NO
SIGNIFICANT WEATHER AND/OR OBSTRUCTIONS TO VISIBILITY.

* THESE STATIONS ARE NOT UNDER NWS QUALITY CONTROL. THEY ALSO MAY NOT
  REPORT WEATHER SUCH AS PRECIPITATION OR FOG.

INZ001>027-210200-
NORTHERN INDIANA

CITY           SKY/WX    TMP DP  RH WIND       PRES   REMARKS
GARY*          CLOUDY    34  23  64 CALM      30.28S
VALPARAISO     CLOUDY    31  25  78 SE5       30.27S WCI  26
MICHIGAN CITY* CLOUDY    32  23  69 CALM      30.28S
LAPORTE*       CLOUDY    33  28  85 CALM      30.28S
KNOX*          CLOUDY    31  24  77 S3        30.28S
SOUTH BEND     CLOUDY    32  26  78 SW3       30.29R
GOSHEN         CLOUDY    31  28  89 CALM      30.28R FOG
MONTICELLO*    CLOUDY    31  27  83 CALM      30.28S
LOGANSPORT*    CLOUDY    30  27  86 CALM      30.30S
ROCHESTER*     CLOUDY    32  30  93 CALM      30.29F
WARSAW*        CLOUDY    32  28  86 CALM      30.28S
ANGOLA*        CLOUDY    30  27  86 CALM      30.27R
FORT WAYNE     CLOUDY    31  27  85 W3        30.30R
HUNTINGTON*    CLOUDY    31  27  88 CALM      30.29S
PERU/GRISSOM   CLOUDY    30  30 100 CALM      30.28S
MARION*        CLOUDY    30  27  88 CALM      30.29F

$$
INZ028>050-210200-
CENTRAL INDIANA

CITY           SKY/WX    TMP DP  RH WIND       PRES   REMARKS
LAFAYETTE      CLOUDY    30  25  81 SE3       30.29S
KOKOMO*        MOCLDY    30  25  80 CALM      30.29S
MUNCIE*        CLOUDY    31  24  75 CALM      30.28S
INDIANAPOLIS   CLOUDY    27  22  81 CALM      30.28S

$$
MIZ043>046-050>051-056>058-064>065-071>073-077>080-210200-
SOUTHWEST LOWER MICHIGAN

CITY           SKY/WX    TMP DP  RH WIND       PRES   REMARKS
BATTLE CREEK   CLOUDY    31  23  72 CALM      30.27R
BENTON HARBOR  CLOUDY    31  26  82 S5        30.28S WCI  26
COLDWATER*     CLOUDY    30  25  83 CALM      30.27R
HILLSDALE*     PTCLDY    24  22  90 CALM      30.26R
HOLLAND        CLOUDY    31  27  85 SE8       30.27S FOG     WCI  23
GRAND RAPIDS   LGT SNOW  30  25  81 S5        30.27R WCI  25
KALAMAZOO      CLOUDY    30  27  88 SW3       30.28R FOG
STURGIS*       CLOUDY    28  28 100 CALM      30.28R FOG
THREE RIVERS*  CLOUDY    30  28  93 CALM      30.29R FOG

$$
OHZ001>008-015>018-024>025-210200-
NORTHWEST OHIO

CITY           SKY/WX    TMP DP  RH WIND       PRES   REMARKS
WAUSEON*       CLOUDY    30  25  80 CALM      30.28S
DEFIANCE       PTCLDY    29  23  78 CALM      30.30R
FINDLAY        CLOUDY    31  24  75 S5        30.27S WCI  26
TOLEDO EXPRESS CLOUDY    29  22  75 CALM      30.28S
TOLEDO METCALF CLOUDY    31  23  72 SE5       30.30R WCI  26
LIMA           CLOUDY    32  24  72 SW5       30.28R WCI  27

$$
AND FOR LAKE MICHIGAN COASTAL AND OPEN LAKE BUOY OBSERVATIONS

STATION/POSITION TEMP    WIND        PRES    VSBY  WAVE
                 AIR SEA DIR/SP/G                  HT/PER
                 (F)     (DEG/KT/KT) (MB)    (MI)  (FT/S)
CALUMET HARBOR    33     170/  3/  4 1023.7R
SAINT JOSEPH      33     150/  2/  5 1025.1S
MICHIGAN CITY CG     37                N/A    1 1/4  1

$$
&&


USA.gov is the U.S. government's official web portal to all federal, state and local government web resources and services.